TimeEST,TemperatureF,Dew PointF,Humidity,Sea Level PressureIn,VisibilityMPH,Wind Direction,Wind SpeedMPH,Gust SpeedMPH,PrecipitationIn,Events,Conditions,WindDirDegrees,DateUTC
12:53 AM,42.1,37.9,85,29.62,9.0,North,6.9,-,0.00,Rain,Light Rain,350,2011-11-11 05:53:00
1:29 AM,42.8,37.4,81,29.62,10.0,NNW,9.2,17.3,0.01,Rain,Light Rain,340,2011-11-11 06:29:00
1:53 AM,42.1,37.0,82,29.62,10.0,North,9.2,-,0.01,,Overcast,350,2011-11-11 06:53:00
2:00 AM,42.8,37.4,81,29.62,10.0,NNW,11.5,16.1,N/A,,Overcast,340,2011-11-11 07:00:00
2:53 AM,42.1,36.0,79,29.61,10.0,NW,6.9,-,N/A,,Scattered Clouds,320,2011-11-11 07:53:00
4:53 AM,42.1,36.0,79,29.58,10.0,WNW,4.6,-,N/A,,Clear,300,2011-11-11 09:53:00
5:53 AM,39.9,36.0,86,29.59,10.0,WNW,5.8,-,N/A,,Clear,290,2011-11-11 10:53:00
7:53 AM,41.0,33.1,73,29.63,10.0,West,10.4,16.1,N/A,,Clear,270,2011-11-11 12:53:00
8:53 AM,43.0,30.9,62,29.64,10.0,West,12.7,20.7,N/A,,Clear,270,2011-11-11 13:53:00
11:53 AM,44.1,26.1,49,29.66,10.0,West,15.0,21.9,N/A,,Mostly Cloudy,280,2011-11-11 16:53:00
12:53 PM,44.1,25.0,47,29.68,10.0,WNW,15.0,25.3,N/A,,Mostly Cloudy,290,2011-11-11 17:53:00
1:53 PM,44.1,24.1,45,29.70,10.0,West,10.4,19.6,N/A,,Overcast,280,2011-11-11 18:53:00
2:53 PM,45.0,24.1,44,29.71,10.0,WNW,11.5,27.6,N/A,,Overcast,290,2011-11-11 19:53:00
3:53 PM,45.0,24.1,44,29.74,10.0,WNW,9.2,20.7,N/A,,Partly Cloudy,290,2011-11-11 20:53:00
4:53 PM,43.0,25.0,49,29.77,10.0,West,10.4,-,N/A,,Clear,270,2011-11-11 21:53:00
5:53 PM,42.1,25.0,51,29.81,10.0,West,16.1,24.2,N/A,,Clear,260,2011-11-11 22:53:00
6:53 PM,41.0,28.0,60,29.85,10.0,West,10.4,16.1,N/A,,Clear,260,2011-11-11 23:53:00
7:53 PM,41.0,28.0,60,29.88,10.0,West,6.9,-,N/A,,Clear,270,2011-11-12 00:53:00
8:53 PM,39.9,28.0,63,29.91,10.0,West,8.1,-,N/A,,Clear,270,2011-11-12 01:53:00
9:53 PM,39.9,28.0,63,29.92,10.0,West,10.4,18.4,N/A,,Clear,260,2011-11-12 02:53:00
10:53 PM,39.0,27.0,62,29.95,10.0,WSW,5.8,-,N/A,,Clear,250,2011-11-12 03:53:00
11:53 PM,37.9,27.0,65,29.98,10.0,West,4.6,-,N/A,,Clear,270,2011-11-12 04:53:00